Regional Weather Roundup
Issued by NWS State College, PA

Home | Current Version | Previous Version | Text Only | Print | Product List | Glossary On
Versions: 1 2 3 4 5 6 7 8 9 10 11 12 13 14 15 16 17 18 19 20 21 22 23 24 25 26 27 28 29 30 31 32 33 34 35 36 37 38 39 40 41 42 43 44 45 46 47 48 49 50
000
ASUS41 KCTP 241810
RWRCTP

REGIONAL WEATHER ROUNDUP
NATIONAL WEATHER SERVICE STATE COLLEGE PA
200 PM EDT WED MAY 24 2017

Note: "fair" indicates few or no clouds below 12,000 feet with no
significant weather and/or obstructions to visibility.

* = STATION THAT DOES NOT REPORT PRECIPITATION /E.G. RAIN...SNOW...ETC/
    THUNDER OR FOG.

PAZ002>004-007>009-013>016-020>023-029>032-241900-
WESTERN PENNSYLVANIA

CITY           SKY/WX    TMP DP  RH WIND       PRES   REMARKS
ERIE           CLOUDY    65  53  65 NE9       29.60F
MEADVILLE      PTSUNNY   67  51  56 VRB7      29.61F
FRANKLIN*      PTSUNNY   68  48  49 SE15G29   29.62F
NEW CASTLE     NOT AVBL
BEAVER COUNTY  LGT RAIN  64  54  68 SE9G17    29.61S
BUTLER*        CLOUDY    64  54  68 SE14G20   29.62S
PITTSBURGH INT LGT RAIN  60  59  96 SE12      29.61S FOG
PITTSBURGH     CLOUDY    61  54  77 E10       29.61F
INDIANA*       CLOUDY    66  52  59 S15       29.69R
LATROBE        CLOUDY    63  54  72 SE12      29.65F
WASHINGTON CO* CLOUDY    61  57  88 E9G16     29.62F
$$

PAZ004>006-010>012-017>019-024>028-033>037-041-042-045-046-049>053-241900-
CENTRAL PENNSYLVANIA

CITY           SKY/WX    TMP DP  RH WIND       PRES   REMARKS
BRADFORD       MOSUNNY   67  49  52 E17G26    29.68F
DUBOIS         CLOUDY    68  45  43 SE12G23   29.65F
CLEARFIELD     CLOUDY    71  47  42 S10G21    29.68F
JOHNSTOWN      CLOUDY    58  51  78 SE8G22    29.69S
ALTOONA        CLOUDY    64  50  60 S15       29.71S
STATE COLLEGE  PTSUNNY   68  50  52 SE9G21    29.70S
WILLIAMSPORT   MOSUNNY   71  49  45 SE12      29.68F
SELINSGROVE    CLOUDY    75  49  39 S13G22    29.70F
FT INDIANTOWN  PTSUNNY   69  51  52 E9        29.71F
CAPITAL CITY   PTSUNNY   70  52  52 E10       29.71F
HARRISBURG     CLOUDY    69  56  62 SE8       29.71F
YORK           CLOUDY    67  55  65 SE9       29.73S
$$

PAZ038>040-043-044-047-048-054-055-060>062-067>071-241900-
EASTERN PENNSYLVANIA

CITY           SKY/WX    TMP DP  RH WIND       PRES   REMARKS
SCRANTON       MOSUNNY   73  47  39 VRB3G16   29.71F
MOUNT POCONO   MOSUNNY   67  48  50 E13G20    29.76F
ALLENTOWN      MOSUNNY   72  49  44 SE12      29.74S
QUAKERTOWN*    MOCLDY    68  52  56 E9        29.75S
READING        MOSUNNY   72  52  49 SE5G16    29.72S
LANCASTER      PTSUNNY   72  55  55 SE10      29.71F
COATESVILLE    CLOUDY    66  50  55 SE8G15    29.75F
POTTSTOWN      PTSUNNY   69  50  50 VRB6      29.75R
BLUE BELL      CLOUDY    66  52  59 E6        29.75F
DOYLESTOWN     CLOUDY    68  53  58 VRB3      29.74S
WILLOW GROVE   NOT AVBL
NORTH PHILA    CLOUDY    71  54  54 E8        29.75S
PHILADELPHIA   PTSUNNY   70  52  52 E13       29.73F
$$



USA.gov is the U.S. government's official web portal to all federal, state and local government web resources and services.